#timestamp,LO_Frequency,Hit,StdDev 
1661292015.7,286047000.4,N
1661292035.5,286046999.7,N
1661292055.4,286047005.8,N
1661292075.2,286047005.8,N
1661292095.0,286047006.9,N
1661292095.9,286047006.9,N
1661292115.8,286047004.7,N
1661292135.6,286047004.5,N
1661292155.5,286047008.6,Y
1661292175.3,286047005.8,P
1661292195.1,286047003.8,P
1661292215.9,286047005.8,P
1661292235.7,286047005.8,Y
1661292255.6,286046996.5,P
1661292275.4,286046998.7,N
1661292295.2,286047000.4,N
1661292315.1,286047001.1,N
1661292316.0,286047001.1,N
1661292335.8,286046998.1,N
1661292355.6,286046999.0,N
1661292375.5,286046996.6,N
1661292395.3,286046999.3,N
1661292415.2,286047000.8,N
1661292435.9,286047003.8,N
1661292455.7,286047004.1,N
1661292475.6,286047001.6,N
1661292495.4,286047002.7,N
1661292515.2,286047000.0,N
1661292535.1,286047000.9,N
1661292536.0,286047000.9,N
1661292555.8,286046998.1,N
1661292575.7,286047001.4,N
1661292595.5,286047003.9,N
1661292615.3,286047003.8,N
1661292635.2,286047003.4,N
1661292655.0,286047003.6,N
1661292655.9,286047003.6,N
1661292675.8,286047002.2,N
1661292695.6,286047001.0,N
1661292715.4,286047000.7,N
1661292735.3,286046999.0,N
1661292755.1,286047001.0,N
1661292775.9,286047001.5,N
1661292795.7,286046998.6,N
1661292815.5,286046997.5,N
1661292835.4,286046994.9,N
1661292855.2,286047001.0,N
1661292875.1,286047000.5,N
1661292876.0,286047000.5,N
1661292895.8,286047001.2,N
1661292915.6,286047002.5,N
1661292935.5,286047005.9,N
1661292955.3,286047003.4,N
1661292975.1,286047004.0,N
1661292995.9,286047005.3,N
1661293015.7,286047003.0,N
1661293065.6,286047007.2,E
1661293075.5,286047001.3,N
1661293095.4,286047002.4,P
1661293115.2,286047003.2,P
1661293135.0,286047004.7,Y
1661293135.9,286047004.7,P
1661293155.8,286047002.5,N
1661293175.6,286047003.9,P
1661293195.5,286047003.8,Y
1661293215.3,286046999.6,P
1661293235.1,286046997.8,N
1661293255.9,286046997.1,N
1661293275.7,286046998.7,N
1661293295.5,286046997.9,N
1661293315.4,286046999.1,N
1661293335.2,286047001.9,N
1661293355.1,286047003.8,N
1661293356.0,286047003.8,N
1661293375.8,286047005.8,N
1661293395.6,286047006.2,N
1661293415.5,286047004.9,N
1661293435.3,286047005.3,N
1661293455.1,286047006.4,N
1661293475.9,286047003.4,N
1661293495.7,286047001.9,N
1661293515.6,286047001.5,N
1661293535.4,286047001.9,N
1661293555.2,286047001.7,N
1661293575.1,286047002.8,N
1661293576.0,286047002.8,N
1661293595.8,286047004.3,N
1661293615.6,286047001.4,N
1661293635.5,286046999.7,N
1661293655.3,286047000.1,N
1661293675.2,286047000.0,N
1661293695.9,286047003.1,N
1661293715.7,286047003.8,N
1661293735.6,286047006.4,N
1661293755.4,286047007.0,N
1661293775.2,286047006.7,N
1661293795.1,286047007.5,N
1661293796.0,286047007.5,N
1661293815.8,286047010.8,Y
1661293835.7,286047006.3,P
1661293855.5,286047008.8,P
1661293875.3,286047008.0,P
1661293895.2,286047012.2,Y
1661293915.0,286047007.2,P
1661293915.9,286047007.2,P
1661293935.7,286047006.7,P
1661293955.6,286047008.5,Y
1661293975.4,286046998.5,P
1661293995.3,286046999.7,N
1661294015.1,286046998.6,N
1661294016.0,286046998.6,N
1661294035.8,286046997.8,N
1661294055.7,286046999.5,N
1661294075.5,286047001.0,N
1661294095.3,286046998.2,N
1661294115.2,286046998.5,N
1661294135.0,286046995.0,N
1661294135.9,286046995.0,N
1661294155.8,286046995.3,N
1661294175.6,286046995.8,N
1661294195.4,286046995.3,N
1661294215.3,286046995.3,N
1661294235.1,286046999.3,N
1661294255.8,286047004.2,N
1661294275.7,286046998.8,N
1661294295.5,286046995.4,N
1661294315.4,286046993.9,N
1661294335.2,286046996.1,N
1661294355.0,286046995.7,N
1661294355.9,286046995.7,N
1661294375.8,286046995.3,N
1661294395.6,286046995.0,N
1661294415.4,286046998.9,N
1661294435.3,286046998.4,N
1661294455.1,286046995.3,N
1661294475.9,286046996.0,N
1661294495.7,286046994.2,N
1661294515.5,286046993.7,N
1661294535.4,286046997.1,N
1661294555.2,286046996.8,N
1661294575.0,286046998.9,N
1661294575.9,286046998.9,N
1661294595.8,286046999.2,N
1661294615.6,286047001.1,N
1661294635.5,286046996.9,N
1661294655.3,286046999.3,N
1661294675.2,286047000.2,N
1661294695.9,286047001.7,N
1661294715.7,286047004.4,N
1661294735.6,286047005.6,N
1661294755.4,286047005.9,N
1661294775.2,286047007.1,N
1661294795.1,286047006.6,N
1661294796.0,286047006.6,N
1661294815.8,286047006.9,N
1661294835.7,286047009.2,N
1661294855.5,286047006.6,N
1661294875.3,286047009.2,N
1661294895.2,286047010.2,N
1661294915.0,286047008.3,N
1661294915.9,286047008.3,N
1661294935.7,286047009.5,N
1661294955.6,286047008.9,N
1661294975.4,286047008.7,N
1661294995.3,286047006.5,N
1661295015.1,286047004.5,N
1661295016.0,286047004.5,N
1661295035.8,286047003.4,N
1661295055.7,286047005.6,N
1661295075.5,286047007.5,N
1661295095.3,286047006.2,N
1661295115.2,286047009.8,N
1661295135.0,286047010.9,Y
1661295135.9,286047010.9,P
1661295155.8,286047006.2,N
1661295175.6,286047009.6,P
1661295195.4,286047013.8,Y
1661295215.3,286047003.4,P
1661295235.1,286047005.9,N
1661295255.9,286047007.1,P
1661295275.7,286047007.4,Y
1661295295.5,286047003.0,P
1661295315.4,286047009.2,P
1661295335.2,286047007.7,P
1661295355.0,286047010.0,Y
1661295355.9,286047010.0,P
1661295375.8,286047003.4,N
1661295395.6,286047005.2,N
1661295415.5,286047006.4,N
1661295435.3,286047010.5,Y
1661295455.1,286047005.5,P
1661295475.9,286047003.4,P
1661295495.7,286047004.9,P
1661295515.5,286047005.8,Y
1661295535.4,286046998.1,P
1661295555.2,286046996.8,N
1661295575.1,286046998.5,N
1661295576.0,286046998.5,N
1661295595.8,286047000.5,N
